Location: Bílinka
(49.3579°N, 14.3767°E)
Time: 01:22:04
(UTC+00:00)

Cosmos 1606 Rocket - Pass Details

Date: 28 January 2023
Orbit: 602 x 629 km, 82.5° (Epoch: 31 March)

Event Time Altitude Azimuth Distance (km) Brightness Sun altitude
Rises 18:27:03 0° 346° (NNW) 2,871 7.2 -25.2°
Reaches altitude 10° 18:29:19 10° 342° (NNW) 1,961 6.3 -25.6°
Maximum altitude 18:33:32 54° 265° (W) 735 4.1 -26.3°
Enters shadow 18:35:46 26° 198° (SSW) 1,208 5.1 -26.6°
